When you browse on this site, cookies collect data to enhance your experience and personalize the content and advertising you see.
Visit our Privacy Policy to learn more. By continuing to use the site, you agree to this use of cookies and data.
  • In Czech Republic
  • List of Countries
  • For 7 days
  • Water Temperature
  • Weather Map
  • Weather Widgets
  • user-avatar
    Login

    Hourly Weather Leski

    Today, 29 January, Wednesday

    Time Temperature Precipitation Wind Pressure Humidity
    00:00 -5°C° 0 mm 3 mps 738 mmHg 96%
    01:00 -4°C° 0 mm 3 mps 738 mmHg 96%
    02:00 -2°C° 0 mm 3 mps 738 mmHg 97%
    03:00 -2°C° 0 mm 3 mps 737 mmHg 97%
    04:00 -2°C° 0 mm 3 mps 737 mmHg 96%
    05:00 -2°C° 0 mm 3 mps 737 mmHg 96%
    06:00 -4°C° 0 mm 3 mps 737 mmHg 95%
    07:00 -4°C° 0 mm 3 mps 737 mmHg 94%
    08:00 -5°C° 0 mm 3 mps 736 mmHg 93%
    09:00 -5°C° 0 mm 3 mps 736 mmHg 93%
    10:00 -4°C° 0 mm 3 mps 736 mmHg 94%
    11:00 -4°C° 0 mm 3 mps 736 mmHg 94%
    12:00 -2°C° 0.1 mm 3 mps 735 mmHg 95%
    13:00 -1°C° 0.1 mm 3 mps 735 mmHg 97%
    14:00 -1°C° 0.1 mm 3 mps 735 mmHg 98%
    15:00 -2°C° 0 mm 4 mps 735 mmHg 98%
    16:00 -1°C° 0 mm 4 mps 734 mmHg 99%
    17:00 -1°C° 0 mm 4 mps 734 mmHg 99%
    18:00 -1°C° 0 mm 4 mps 734 mmHg 99%
    19:00 -1°C° 0 mm 4 mps 734 mmHg 99%
    20:00 -1°C° 0 mm 4 mps 733 mmHg 98%
    21:00 -1°C° 0 mm 4 mps 733 mmHg 99%
    22:00 -1°C° 0 mm 4 mps 732 mmHg 99%
    23:00 -1°C° 0 mm 4 mps 732 mmHg 99%

    Tomorrow, 30 January, Thursday

    Time Temperature Precipitation Wind Pressure Humidity
    00:00 -1°C° 0.1 mm 4 mps 731 mmHg 98%
    01:00 -1°C° 0.1 mm 4 mps 731 mmHg 98%
    02:00 -1°C° 0.1 mm 4 mps 730 mmHg 98%
    03:00 -1°C° 0 mm 5 mps 730 mmHg 98%
    04:00 -2°C° 0 mm 6 mps 729 mmHg 99%
    05:00 -2°C° 0 mm 6 mps 728 mmHg 99%
    06:00 -2°C° 0.8 mm 6 mps 728 mmHg 98%
    07:00 -2°C° 0.8 mm 6 mps 728 mmHg 98%
    08:00 -2°C° 0.8 mm 6 mps 728 mmHg 97%
    09:00 -3°C° 0.1 mm 6 mps 728 mmHg 94%
    10:00 -3°C° 0.1 mm 7 mps 728 mmHg 90%
    11:00 -3°C° 0.1 mm 7 mps 728 mmHg 87%
    12:00 -3°C° 0 mm 7 mps 728 mmHg 86%
    13:00 -3°C° 0 mm 6 mps 728 mmHg 85%
    14:00 -3°C° 0 mm 6 mps 728 mmHg 84%
    15:00 -3°C° 0 mm 7 mps 728 mmHg 86%
    16:00 -4°C° 0 mm 7 mps 728 mmHg 87%
    17:00 -4°C° 0 mm 7 mps 727 mmHg 89%
    18:00 -4°C° 0.2 mm 7 mps 727 mmHg 91%
    19:00 -4°C° 0.2 mm 8 mps 727 mmHg 93%
    20:00 -4°C° 0.2 mm 8 mps 727 mmHg 95%
    21:00 -4°C° 0.4 mm 8 mps 726 mmHg 96%
    22:00 -3°C° 0.4 mm 7 mps 726 mmHg 96%
    23:00 -3°C° 0.4 mm 6 mps 725 mmHg 96%

    Day after tomorrow, 31 January, Friday

    Time Temperature Precipitation Wind Pressure Humidity
    00:00 -4°C° 0.4 mm 6 mps 726 mmHg 96%
    01:00 -4°C° 0.4 mm 6 mps 726 mmHg 96%
    02:00 -4°C° 0.4 mm 5 mps 726 mmHg 96%
    03:00 -4°C° 0.3 mm 5 mps 726 mmHg 96%
    04:00 -4°C° 0.3 mm 6 mps 726 mmHg 96%
    05:00 -5°C° 0.3 mm 6 mps 726 mmHg 96%
    06:00 -5°C° 0.2 mm 6 mps 726 mmHg 95%
    07:00 -5°C° 0.2 mm 6 mps 727 mmHg 94%
    08:00 -6°C° 0.2 mm 7 mps 727 mmHg 94%
    09:00 -5°C° 0.1 mm 6 mps 728 mmHg 92%
    10:00 -5°C° 0.1 mm 6 mps 728 mmHg 91%
    11:00 -4°C° 0.1 mm 6 mps 728 mmHg 90%
    12:00 -4°C° 0 mm 5 mps 729 mmHg 89%
    13:00 -4°C° 0 mm 5 mps 730 mmHg 88%
    14:00 -3°C° 0 mm 4 mps 730 mmHg 88%
    15:00 -3°C° 0.1 mm 4 mps 730 mmHg 90%
    16:00 -2°C° 0.1 mm 3 mps 731 mmHg 93%
    17:00 -2°C° 0.1 mm 3 mps 731 mmHg 95%
    18:00 -2°C° 0.1 mm 3 mps 731 mmHg 95%
    19:00 -4°C° 0.1 mm 3 mps 732 mmHg 95%
    20:00 -4°C° 0.1 mm 4 mps 732 mmHg 95%
    21:00 -4°C° 0.1 mm 3 mps 732 mmHg 94%
    22:00 -4°C° 0.1 mm 3 mps 732 mmHg 94%
    23:00 -3°C° 0.1 mm 2 mps 733 mmHg 94%

    1 February, Saturday

    Time Temperature Precipitation Wind Pressure Humidity
    00:00 -3°C° 0 mm 2 mps 733 mmHg 93%
    01:00 -4°C° 0 mm 2 mps 733 mmHg 93%
    02:00 -2°C° 0 mm 1 mps 734 mmHg 92%
    03:00 -3°C° 0 mm 1 mps 734 mmHg 92%
    04:00 -3°C° 0 mm 1 mps 734 mmHg 93%
    05:00 -4°C° 0 mm 1 mps 734 mmHg 93%
    06:00 -4°C° 0 mm 1 mps 734 mmHg 93%
    07:00 -5°C° 0 mm 0 mps 734 mmHg 93%
    08:00 -5°C° 0 mm 0 mps 735 mmHg 94%
    09:00 -4°C° 0 mm 0 mps 735 mmHg 93%
    10:00 -3°C° 0 mm 0 mps 735 mmHg 92%
    11:00 -2°C° 0 mm 0 mps 736 mmHg 91%
    12:00 -2°C° 0 mm 0 mps 736 mmHg 92%
    13:00 -2°C° 0 mm 0 mps 736 mmHg 92%
    14:00 -2°C° 0 mm 0 mps 736 mmHg 93%
    15:00 -3°C° 0 mm 0 mps 736 mmHg 93%
    16:00 -4°C° 0 mm 0 mps 737 mmHg 93%
    17:00 -5°C° 0 mm 0 mps 737 mmHg 93%
    18:00 -5°C° 0 mm 0 mps 737 mmHg 93%
    19:00 -4°C° 0 mm 1 mps 737 mmHg 93%
    20:00 -4°C° 0 mm 1 mps 737 mmHg 93%
    21:00 -4°C° 0 mm 1 mps 737 mmHg 93%
    22:00 -6°C° 0 mm 1 mps 737 mmHg 93%
    23:00 -7°C° 0 mm 2 mps 737 mmHg 94%

    2 February, Sunday

    Time Temperature Precipitation Wind Pressure Humidity
    00:00 -6°C° 0 mm 2 mps 737 mmHg 95%
    01:00 -5°C° 0 mm 2 mps 737 mmHg 95%
    02:00 -4°C° 0 mm 2 mps 738 mmHg 96%
    03:00 -5°C° 0 mm 3 mps 737 mmHg 96%
    04:00 -4°C° 0 mm 3 mps 737 mmHg 95%
    05:00 -4°C° 0 mm 4 mps 737 mmHg 95%
    06:00 -4°C° 0 mm 4 mps 737 mmHg 94%
    07:00 -4°C° 0 mm 4 mps 736 mmHg 94%
    08:00 -5°C° 0 mm 5 mps 736 mmHg 93%
    09:00 -4°C° 0 mm 6 mps 736 mmHg 93%
    10:00 -3°C° 0 mm 7 mps 736 mmHg 93%
    11:00 -3°C° 0 mm 7 mps 735 mmHg 93%
    12:00 -2°C° 0 mm 7 mps 735 mmHg 95%
    13:00 -2°C° 0 mm 7 mps 735 mmHg 97%
    14:00 -2°C° 0 mm 7 mps 734 mmHg 98%
    15:00 -2°C° 0.3 mm 7 mps 733 mmHg 98%
    16:00 -1°C° 0.3 mm 7 mps 733 mmHg 98%
    17:00 -1°C° 0.3 mm 7 mps 732 mmHg 98%
    18:00 -1°C° 0.6 mm 7 mps 732 mmHg 98%
    19:00 -1°C° 0.6 mm 7 mps 731 mmHg 98%
    20:00 -1°C° 0.6 mm 7 mps 730 mmHg 98%
    21:00 -1°C° 0.7 mm 6 mps 730 mmHg 98%
    22:00 -1°C° 0.7 mm 6 mps 730 mmHg 98%
    23:00 0°C° 0.7 mm 5 mps 730 mmHg 99%

    3 February, Monday

    Time Temperature Precipitation Wind Pressure Humidity
    00:00 0°C° 0.1 mm 5 mps 730 mmHg 98%
    01:00 -1°C° 0.1 mm 5 mps 730 mmHg 97%
    02:00 -1°C° 0.1 mm 4 mps 730 mmHg 96%
    03:00 -1°C° 0 mm 5 mps 730 mmHg 96%
    04:00 -1°C° 0 mm 5 mps 730 mmHg 96%
    05:00 -1°C° 0 mm 5 mps 730 mmHg 96%
    06:00 -1°C° 0 mm 5 mps 730 mmHg 96%
    07:00 -1°C° 0 mm 4 mps 730 mmHg 97%
    08:00 -1°C° 0 mm 4 mps 730 mmHg 97%
    09:00 -1°C° 0.1 mm 4 mps 729 mmHg 98%
    10:00 -1°C° 0.1 mm 4 mps 729 mmHg 99%
    11:00 -1°C° 0.1 mm 4 mps 729 mmHg 99%
    12:00 -1°C° 0.1 mm 4 mps 729 mmHg 99%
    13:00 -1°C° 0.1 mm 4 mps 729 mmHg 99%
    14:00 -1°C° 0.1 mm 4 mps 729 mmHg 99%
    15:00 -1°C° 0.1 mm 4 mps 729 mmHg 98%
    16:00 -1°C° 0.1 mm 4 mps 730 mmHg 97%
    17:00 -1°C° 0.1 mm 4 mps 730 mmHg 96%
    18:00 -2°C° 0 mm 4 mps 730 mmHg 95%
    19:00 -3°C° 0 mm 4 mps 731 mmHg 93%
    20:00 -3°C° 0 mm 4 mps 731 mmHg 92%
    21:00 -4°C° 0 mm 4 mps 731 mmHg 92%
    22:00 -4°C° 0 mm 4 mps 732 mmHg 92%
    23:00 -5°C° 0 mm 3 mps 732 mmHg 91%
    Show more